« Back
NWS Peachtree City, Ga » Text Product » GA Regional Weather Roundup


Printer-friendly Version
Current Version              Previous Versions:   1  2  3  4  5  6  7  8  9  

Regional Weather Roundup

347
ASUS42 KFFC 021703
RWRGA
WEATHER ROUNDUP FOR GEORGIA
NATIONAL WEATHER SERVICE PEACHTREE CITY GA
100 PM EDT TUE SEP 02 2014

NOTE: "FAIR" INDICATES FEW OR NO CLOUDS BELOW 12,000 FEET WITH NO
SIGNIFICANT WEATHER AND/OR OBSTRUCTIONS TO VISIBILITY.

* = USE WITH CAUTION. THE STATIONS MARKED WITH AN ASTERISK MAY NOT
REPORT WEATHER SUCH AS PRECIPITATION, FOG, OR THUNDER AND ARE NOT
QUALITY CONTROLLED BY NWS.

THE REMARK "TC" DENOTES TEMPERATURE READING IN DEGREES CELSIUS.

GAZ001>058-021800-
NORTH GEORGIA

CITY           SKY/WX    TMP DP  RH WIND       PRES   REMARKS
ATLANTA        MOSUNNY   88  71  57 CALM      30.12F HX  94
ATHENS         SUNNY     92  69  47 W6        30.11F HX  97
CHAMBLEE       MOSUNNY   87  69  54 W5        30.12F HX  91
PEACHTREE CITY MOSUNNY   88  71  57 NW5       30.12F HX  94
ROME           CLOUDY    88  71  57 NW8       30.09F HX  94
WEST ATLANTA   MOSUNNY   87  71  58 S3        30.11F HX  93
GAINESVILLE    MOSUNNY   87  70  56 W10       30.14F HX  92
CARTERSVILLE   MOSUNNY   88  70  55 NE3       30.11F HX  93


CITY           SKY/WX    TMP DP  RH WIND       PRES   REMARKS
DALTON*        MOSUNNY   86  72  62 CALM      30.10F HX  92
LAWRENCEVILLE* MOSUNNY   88  66  48 W7        30.12F HX  90
KENNESAW*      MOSUNNY   84  70  61 NW9       30.14F
$$

GAZ059>098-102>109-021800-
CENTRAL GEORGIA

CITY           SKY/WX    TMP DP  RH WIND       PRES   REMARKS
AUGUSTA-BUSH   MOSUNNY   91  73  55 VRB6      30.07F HX  99
AUGUSTA-DANIEL MOSUNNY   90  71  53 VRB3      30.09F HX  96
COLUMBUS       MOSUNNY   89  70  53 W6        30.09F HX  94
MACON          MOSUNNY   91  72  53 CALM      30.09F HX  98
ROBINS AFB     SUNNY     89  75  64 NW5       30.09F HX  99


CITY           SKY/WX    TMP DP  RH WIND       PRES   REMARKS
LAGRANGE*      SUNNY     91  76  61 W3        30.11F HX 104
SYLVANIA*      PTSUNNY   95  79  60 CALM      30.08F HX 112
MILLEDGEVILLE* SUNNY     86  77  74 CALM      30.10F HX  97
$$

GAZ099>101-110>166-021800-
SOUTH GEORGIA

CITY           SKY/WX    TMP DP  RH WIND       PRES   REMARKS
SAVANNAH       PTSUNNY   94  74  52 SE7       30.07F HX 104
VALDOSTA       MOSUNNY   90  74  59 CALM      30.09F HX  99
ALMA           MOSUNNY   88  73  61 W3        30.09F HX  95
ST SIMONS      MOSUNNY   88  76  67 SE9       30.08F HX  99
FT STEWART     DRIZZLE   92  73  52 VRB3      30.06F HX 101
ALBANY         PTSUNNY   90  72  55 N3        30.10F HX  97
HUNTER AFB     PTSUNNY   90  77  64 SE8       30.05F HX 102
MOODY AFB      SUNNY     88  74  63 VRB3      30.09F HX  97
BRUNSWICK      PTSUNNY   91  72  52 SE6       30.08F HX  98


CITY           SKY/WX    TMP DP  RH WIND       PRES   REMARKS
BAINBRIDGE*    MOSUNNY   95  73  49 CALM      30.09F HX 105
MOULTRIE*      MOSUNNY   90  73  58 NW5       30.10F HX  98
VIDALIA*         N/A     84  75  74 N3        30.09F HX  92
WAYCROSS*      MOSUNNY   92  77  61 CALM      30.08F HX 105
DOUGLAS*       SUNNY     91  73  55 N3        30.10F HX 100
$$



USA.gov is the U.S. government's official web portal to all federal, state and local government web resources and services.